Location: Ferchesar
(52.6477°N, 12.4298°E)
Time: 10:08:11
(UTC+01:00)

Tiros 1 despin weight - Pass Details

Date: 16 December 2021
Orbit: 592 x 641 km, 48.2° (Epoch: 19 January)

Event Time Altitude Azimuth Distance (km) Brightness Sun altitude
Rises 09:28:46 0° 231° (SW) 2,877 ? 6.7°
Reaches altitude 10° 09:31:15 10° 222° (SW) 1,965 ? 6.9°
Maximum altitude 09:35:16 32° 159° (SSE) 1,042 ? 7.2°
Drops below altitude 10° 09:39:14 10° 96° (E) 1,944 ? 7.6°
Sets 09:41:41 0° 87° (E) 2,842 ? 7.8°
